カタログに戻る

FENGYUN 1C DEB

運用中PO
NORAD 30516·DEBRIS·🇨🇳 China

打ち上げ May 10, 1999 から Taiyuan Satellite Launch Center

Loading…

次のパス (今後24時間)

TLE

最新Source: Space-Track

元期: Sep 14, 2026, 14:22 UTC

1 30516U 99025AJE 26257.59903873  .00004173  00000-0  12108-2 0  9995
2 30516  98.8656  17.6213 0009824 187.2275 295.2315 14.44903642 16948

AllMySatでFENGYUN 1C DEBをリアルタイム追跡

Download on the App Store